SR6NWB-11 Weather Reports


time (UTC)temp
C
wind
direction
speed
KPH
gust
KPH
rain 1hr
cm
rain 24hr
cm
rain mn
cm
humidity
%
barometer
mb
20260905100013 15 0 0.0 0.0 0.00 0.00 0.00 81 1021.5
20260905095103 15 0 0.0 0.0 0.00 0.00 0.00 82 1021.6
20260905094248 15 0 0.0 0.0 0.00 0.00 0.00 81 1021.5
20260905093418 15 0 0.0 0.0 0.00 0.00 0.00 83 1021.6
20260905092558 14 0 0.0 0.0 0.00 0.00 0.00 83 1021.5
20260905091653 14 0 0.0 0.0 0.00 0.00 0.00 84 1021.5
20260905090708 14 0 0.0 0.0 0.00 0.00 0.00 86 1021.6
20260905085823 14 0 0.0 0.0 0.00 0.00 0.00 85 1021.5
20260905084833 14 0 0.0 0.0 0.00 0.00 0.00 88 1021.3
20260905083833 13 0 0.0 0.0 0.00 0.00 0.00 89 1021.2
20260905083008 13 0 0.0 0.0 0.00 0.00 0.00 92 1021.3
20260905082048 13 0 0.0 0.0 0.00 0.00 0.00 93 1021.2
20260905081238 13 0 0.0 0.0 0.00 0.00 0.00 93 1021.1
20260905080358 13 0 0.0 0.0 0.00 0.00 0.00 95 1021.1
20260905075553 12 0 0.0 0.0 0.00 0.00 0.00 96 1020.9
20260905074748 12 0 0.0 0.0 0.00 0.00 0.00 96 1020.9
20260905073828 12 0 0.0 0.0 0.00 0.00 0.00 97 1020.8
20260905073003 12 0 0.0 0.0 0.00 0.00 0.00 97 1020.9
20260905072038 12 0 0.0 0.0 0.00 0.00 0.00 97 1020.8
20260905071128 12 0 0.0 0.0 0.00 0.00 0.00 97 1020.8
20260905070309 12 0 0.0 0.0 0.00 0.00 0.00 98 1020.7
20260905065321 12 0 0.0 0.0 0.00 0.00 0.00 98 1020.6
20260905064518 12 0 0.0 0.0 0.00 0.00 0.00 99 1020.6
20260905063528 11 0 0.0 0.0 0.00 0.00 0.00 10 1020.7
20260905062557 11 0 0.0 0.0 0.00 0.00 0.00 10 1020.6
20260905061633 11 0 0.0 0.0 0.00 0.00 0.00 10 1020.5
20260905060643 11 0 0.0 0.0 0.00 0.00 0.00 10 1020.3
20260905055818 11 0 0.0 0.0 0.00 0.00 0.00 10 1020.2
20260905054818 11 0 0.0 0.0 0.00 0.00 0.00 10 1020.0
20260905053928 11 0 0.0 0.0 0.00 0.00 0.00 10 1020.0
20260905053008 11 0 0.0 0.0 0.00 0.00 0.00 10 1019.9
20260905052123 11 0 0.0 0.0 0.00 0.00 0.00 10 1019.8
20260905051153 11 0 0.0 0.0 0.00 0.00 0.00 10 1019.8
20260905050343 11 0 0.0 0.0 0.00 0.00 0.00 10 1019.6
20260905045438 11 0 0.0 0.0 0.00 0.00 0.00 10 1019.5
20260905044548 11 0 0.0 0.0 0.00 0.00 0.00 10 1019.6
20260905043618 11 0 0.0 0.0 0.00 0.00 0.00 10 1019.4
20260905042808 11 0 0.0 0.0 0.00 0.00 0.00 10 1019.3
20260905041853 11 0 0.0 0.0 0.00 0.00 0.00 10 1019.0
20260905041003 11 0 0.0 0.0 0.00 0.00 0.00 10 1019.0
20260905040028 11 0 0.0 0.0 0.00 0.00 0.00 10 1018.9
20260905035148 11 0 0.0 0.0 0.00 0.00 0.00 10 1019.0
20260905034303 11 0 0.0 0.0 0.00 0.00 0.00 10 1018.8
20260905033353 11 0 0.0 0.0 0.00 0.00 0.00 10 1018.8
20260905032428 11 0 0.0 0.0 0.00 0.00 0.00 10 1018.7
20260905031428 11 0 0.0 0.0 0.00 0.00 0.00 10 1018.7
20260905030618 11 0 0.0 0.0 0.00 0.00 0.00 10 1018.4
20260905025618 11 0 0.0 0.0 0.00 0.00 0.00 10 1018.6
20260905024633 11 0 0.0 0.0 0.00 0.00 0.00 10 1018.6
20260905023708 11 0 0.0 0.0 0.00 0.00 0.00 10 1018.3
20260905022748 11 0 0.0 0.0 0.00 0.00 0.00 10 1018.1
20260905021928 11 0 0.0 0.0 0.00 0.00 0.00 10 1018.3
20260905021003 11 0 0.0 0.0 0.00 0.00 0.00 10 1017.8
20260905020203 11 0 0.0 0.0 0.00 0.00 0.00 10 1017.4
20260905015233 11 0 0.0 0.0 0.00 0.00 0.00 10 1017.6
20260905014403 11 0 0.0 0.0 0.00 0.00 0.00 10 1017.3
20260905013428 11 0 0.0 0.0 0.00 0.00 0.00 10 1017.6
20260905012543 11 0 0.0 0.0 0.00 0.00 0.00 10 1017.8
20260905011648 11 0 0.0 0.0 0.00 0.00 0.00 10 1017.6
20260905010653 12 0 0.0 0.0 0.00 0.00 0.00 10 1017.9
20260905005728 12 0 0.0 0.0 0.00 0.00 0.00 10 1017.6
20260905004728 12 0 0.0 0.0 0.00 0.00 0.00 10 1017.8
20260905003848 12 0 0.0 0.0 0.00 0.00 0.00 10 1017.8
20260905003013 12 0 0.0 0.0 0.00 0.00 0.00 10 1018.1
20260905002118 12 0 0.0 0.0 0.00 0.00 0.00 10 1018.0
20260905001258 12 0 0.0 0.0 0.00 0.00 0.00 10 1018.0
20260905000428 12 0 0.0 0.0 0.00 0.00 0.00 10 1017.9
20260904235623 13 0 0.0 0.0 0.00 0.00 0.00 10 1017.8
20260904234749 13 0 0.0 0.0 0.00 0.00 0.00 10 1017.9
20260904233933 13 0 0.0 0.0 0.00 0.00 0.00 10 1017.4
20260904233133 13 0 0.0 0.0 0.00 0.00 0.00 10 1017.0
20260904232143 13 0 0.0 0.0 0.00 0.00 0.00 10 1017.4
20260904231323 13 0 0.0 0.0 0.00 0.00 0.00 10 1017.1
20260904230438 13 0 0.0 0.0 0.00 0.00 0.00 10 1017.7
20260904225603 13 0 0.0 0.0 0.00 0.00 0.00 10 1017.1
20260904224758 13 0 0.0 0.0 0.00 0.00 0.00 10 1016.8
20260904223913 13 0 0.0 0.0 0.00 0.00 0.00 10 1017.0
20260904223043 13 0 0.0 0.0 0.00 0.00 0.00 99 1017.4
20260904222103 13 0 0.0 0.0 0.00 0.00 0.00 98 1017.4
20260904221248 14 0 0.0 0.0 0.00 0.00 0.00 97 1017.2
20260904220408 14 0 0.0 0.0 0.00 0.00 0.00 96 1017.0
20260904215513 14 0 0.0 0.0 0.00 0.00 0.00 96 1016.9
20260904214538 14 0 0.0 0.0 0.00 0.00 0.00 95 1016.9
20260904213653 14 0 0.0 0.0 0.00 0.00 0.00 95 1017.0
20260904212758 14 0 0.0 0.0 0.00 0.00 0.00 94 1016.8
20260904211808 14 0 0.0 0.0 0.00 0.00 0.00 94 1017.1
20260904210913 15 0 0.0 0.0 0.00 0.00 0.00 94 1017.3
20260904205920 15 0 0.0 0.0 0.00 0.00 0.00 94 1016.8
20260904205043 15 0 0.0 0.0 0.00 0.00 0.00 93 1016.9
20260904204238 15 0 0.0 0.0 0.00 0.00 0.00 93 1017.1
20260904203413 15 0 0.0 0.0 0.00 0.00 0.00 93 1017.1
20260904202533 15 0 0.0 0.0 0.00 0.00 0.00 93 1017.0
20260904201640 15 0 0.0 0.0 0.00 0.00 0.00 92 1017.0
20260904200643 15 0 0.0 0.0 0.00 0.00 0.00 92 1017.2
20260904195658 16 0 0.0 0.0 0.00 0.00 0.00 92 1017.1
20260904194708 16 0 0.0 0.0 0.00 0.00 0.00 92 1016.8
20260904193803 16 0 0.0 0.0 0.00 0.00 0.00 92 1017.0
20260904192833 16 0 0.0 0.0 0.00 0.00 0.00 92 1017.2
20260904191833 17 0 0.0 0.0 0.00 0.00 0.00 92 1016.9
20260904190903 17 0 0.0 0.0 0.00 0.00 0.00 92 1016.9
20260904190009 18 0 0.0 0.0 0.00 0.00 0.00 91 1016.7
20260904185208 18 0 0.0 0.0 0.00 0.00 0.00 91 1016.3
20260904184323 18 0 0.0 0.0 0.00 0.00 0.00 90 1016.4
20260904183443 19 0 0.0 0.0 0.00 0.00 0.00 89 1015.8
20260904182608 19 0 0.0 0.0 0.00 0.00 0.00 89 1015.5
20260904181628 18 0 0.0 0.0 0.00 0.00 0.00 89 1015.3
20260904180817 18 0 0.0 0.0 0.00 0.00 0.00 90 1015.0
20260904175928 18 0 0.0 0.0 0.00 0.00 0.00 90 1014.8
20260904175118 18 0 0.0 0.0 0.00 0.00 0.00 90 1014.7
20260904174228 18 0 0.0 0.0 0.00 0.00 0.00 90 1014.6
20260904173301 18 0 0.0 0.0 0.00 0.00 0.00 90 1014.7
20260904172433 18 0 0.0 0.0 0.00 0.00 0.00 90 1015.3
20260904171508 18 0 0.0 0.0 0.00 0.00 0.00 90 1015.4
20260904170548 18 0 0.0 0.0 0.00 0.00 0.00 90 1015.5
20260904165553 18 0 0.0 0.0 0.00 0.00 0.00 91 1015.5
20260904164648 18 0 0.0 0.0 0.00 0.00 0.00 91 1015.5
20260904163658 18 0 0.0 0.0 0.00 0.00 0.00 92 1015.3
20260904162715 18 0 0.0 0.0 0.00 0.00 0.00 91 1015.7
20260904161743 18 0 0.0 0.0 0.00 0.00 0.00 91 1015.8
20260904160813 19 0 0.0 0.0 0.00 0.00 0.00 91 1015.7
20260904160013 19 0 0.0 0.0 0.00 0.00 0.00 91 1015.8
20260904155109 19 0 0.0 0.0 0.00 0.00 0.00 91 1015.7
20260904154223 19 0 0.0 0.0 0.00 0.00 0.00 91 1015.5
20260904153333 18 0 0.0 0.0 0.00 0.00 0.00 92 1015.5
20260904152527 18 0 0.0 0.0 0.00 0.00 0.00 91 1015.4
20260904151548 19 0 0.0 0.0 0.00 0.00 0.00 92 1015.6
20260904150633 19 0 0.0 0.0 0.00 0.00 0.00 92 1015.4
20260904145803 19 0 0.0 0.0 0.00 0.00 0.00 92 1015.5
20260904144928 19 0 0.0 0.0 0.00 0.00 0.00 92 1015.5
20260904144103 19 0 0.0 0.0 0.00 0.00 0.00 91 1015.8
20260904143123 19 0 0.0 0.0 0.00 0.00 0.00 91 1015.9
20260904142243 19 0 0.0 0.0 0.00 0.00 0.00 91 1016.4
20260904141438 19 0 0.0 0.0 0.00 0.00 0.00 91 1016.4
20260904140543 19 0 0.0 0.0 0.00 0.00 0.00 91 1016.5
20260904135648 19 0 0.0 0.0 0.00 0.00 0.00 92 1016.5
20260904134800 19 0 0.0 0.0 0.00 0.00 0.00 92 1016.6
20260904133858 18 0 0.0 0.0 0.00 0.00 0.00 93 1016.5
20260904133008 18 0 0.0 0.0 0.00 0.00 0.00 93 1016.6
20260904132123 18 0 0.0 0.0 0.00 0.00 0.00 93 1016.9
20260904131318 18 0 0.0 0.0 0.00 0.00 0.00 92 1016.7
20260904130433 18 0 0.0 0.0 0.00 0.00 0.00 93 1017.0
20260904125558 18 0 0.0 0.0 0.00 0.00 0.00 93 1016.8
20260904124748 18 0 0.0 0.0 0.00 0.00 0.00 93 1017.1
20260904123823 18 0 0.0 0.0 0.00 0.00 0.00 94 1017.1
20260904122958 18 0 0.0 0.0 0.00 0.00 0.00 94 1017.3
20260904122018 18 0 0.0 0.0 0.00 0.00 0.00 94 1017.1
20260904121058 18 0 0.0 0.0 0.00 0.00 0.00 95 1017.6
20260904120153 18 0 0.0 0.0 0.00 0.00 0.00 95 1017.3
20260904115338 18 0 0.0 0.0 0.00 0.00 0.00 95 1017.5
20260904114438 18 0 0.0 0.0 0.00 0.00 0.00 96 1017.7
20260904113500 17 0 0.0 0.0 0.00 0.00 0.00 97 1017.9
20260904112603 17 0 0.0 0.0 0.00 0.00 0.00 97 1018.0
20260904111638 17 0 0.0 0.0 0.00 0.00 0.00 97 1017.9
20260904110743 17 0 0.0 0.0 0.00 0.00 0.00 96 1018.2
20260904105743 17 0 0.0 0.0 0.00 0.00 0.00 96 1018.1
20260904104908 17 0 0.0 0.0 0.00 0.00 0.00 97 1018.1
20260904103943 17 0 0.0 0.0 0.00 0.00 0.00 98 1018.2
20260904103129 17 0 0.0 0.0 0.00 0.00 0.00 98 1018.3
20260904102213 17 0 0.0 0.0 0.00 0.00 0.00 99 1018.7
20260904101323 16 0 0.0 0.0 0.00 0.00 0.00 99 1018.7